Time,TemperatureF,DewpointF,PressureIn,WindDirection,WindDirectionDegrees,WindSpeedMPH,WindSpeedGustMPH,Humidity,HourlyPrecipIn,Conditions,Clouds,dailyrainin,SolarRadiationWatts/m^2,SoftwareType,DateUTC
2013-04-22 00:00:00,51.5,48.1,29.94,NNW,329,2.0,5.0,88,0.00,RA,,0.00,0.0,WeatherDisplay:10.37,2013-04-21 22:00:00,
2013-04-22 00:05:00,51.5,48.1,29.94,NNW,330,0.0,2.0,88,0.00,RA,,0.00,0.0,WeatherDisplay:10.37,2013-04-21 22:05:00,
2013-04-22 00:10:00,51.7,48.3,29.94,NNE,14,2.0,4.0,88,0.00,,,0.00,0.0,WeatherDisplay:10.37,2013-04-21 22:10:00,
2013-04-22 00:15:00,51.9,48.8,29.94,NNE,27,1.0,2.0,89,0.00,,,0.00,0.0,WeatherDisplay:10.37,2013-04-21 22:15:00,
2013-04-22 00:20:00,51.8,48.4,29.94,NNE,27,0.0,3.0,88,0.00,,,0.00,0.0,WeatherDisplay:10.37,2013-04-21 22:20:00,
2013-04-22 00:25:00,51.5,48.4,29.94,NE,55,2.0,7.0,89,0.00,,,0.00,0.0,WeatherDisplay:10.37,2013-04-21 22:25:00,
2013-04-22 00:30:00,51.5,48.4,29.93,ENE,66,2.0,4.0,89,0.00,,,0.00,0.0,WeatherDisplay:10.37,2013-04-21 22:30:00,
2013-04-22 00:35:00,51.5,48.4,29.93,ENE,66,0.0,4.0,89,0.00,,,0.00,0.0,WeatherDisplay:10.37,2013-04-21 22:35:00,
2013-04-22 00:40:00,51.5,48.4,29.93,ENE,67,1.0,3.0,89,0.00,,,0.00,0.0,WeatherDisplay:10.37,2013-04-21 22:40:00,
2013-04-22 00:45:00,51.6,48.5,29.93,ENE,67,0.0,3.0,89,0.00,,,0.00,0.0,WeatherDisplay:10.37,2013-04-21 22:45:00,
2013-04-22 00:50:00,51.7,48.6,29.93,ENE,68,3.0,5.0,89,0.00,,,0.00,0.0,WeatherDisplay:10.37,2013-04-21 22:50:00,
2013-04-22 00:55:00,51.8,48.7,29.93,ENE,69,3.0,5.0,89,0.00,,,0.00,0.0,WeatherDisplay:10.37,2013-04-21 22:55:00,
2013-04-22 01:00:00,51.8,48.7,29.92,ENE,68,3.0,5.0,89,0.00,,,0.00,0.0,WeatherDisplay:10.37,2013-04-21 23:00:00,
2013-04-22 01:05:00,51.9,48.8,29.92,ENE,68,2.0,5.0,89,0.00,,,0.00,0.0,WeatherDisplay:10.37,2013-04-21 23:05:00,
2013-04-22 01:10:00,51.9,48.8,29.92,ENE,67,1.0,4.0,89,0.00,,,0.00,0.0,WeatherDisplay:10.37,2013-04-21 23:10:00,
2013-04-22 01:15:00,51.8,48.7,29.92,ENE,67,2.0,4.0,89,0.00,,,0.00,0.0,WeatherDisplay:10.37,2013-04-21 23:15:00,
2013-04-22 01:20:00,51.7,48.6,29.92,ENE,66,5.0,8.0,89,0.00,,,0.00,0.0,WeatherDisplay:10.37,2013-04-21 23:20:00,
2013-04-22 01:25:00,51.5,48.4,29.92,ENE,76,5.0,7.0,89,0.00,,,0.00,0.0,WeatherDisplay:10.37,2013-04-21 23:25:00,
2013-04-22 01:30:00,51.4,48.2,29.92,East,85,5.0,7.0,89,0.00,,,0.00,0.0,WeatherDisplay:10.37,2013-04-21 23:30:00,
2013-04-22 01:35:00,51.6,48.8,29.92,East,89,5.0,7.0,90,0.00,,,0.00,0.0,WeatherDisplay:10.37,2013-04-21 23:35:00,
2013-04-22 01:40:00,51.7,48.6,29.92,East,101,2.0,8.0,89,0.00,,,0.00,0.0,WeatherDisplay:10.37,2013-04-21 23:40:00,
2013-04-22 01:45:00,51.6,48.2,29.92,ESE,108,6.0,8.0,88,0.00,,,0.00,0.0,WeatherDisplay:10.37,2013-04-21 23:45:00,
2013-04-22 01:50:00,51.6,47.9,29.91,ESE,109,5.0,9.0,87,0.00,,,0.00,0.0,WeatherDisplay:10.37,2013-04-21 23:50:00,
2013-04-22 01:55:00,51.5,47.5,29.91,ESE,112,6.0,12.0,86,0.00,,,0.00,0.0,WeatherDisplay:10.37,2013-04-21 23:55:00,
2013-04-22 02:00:00,51.3,46.9,29.91,ESE,121,3.0,9.0,85,0.00,,,0.00,0.0,WeatherDisplay:10.37,2013-04-22 00:00:00,
2013-04-22 02:05:00,51.1,46.7,29.91,SE,129,3.0,7.0,85,0.00,,,0.00,0.0,WeatherDisplay:10.37,2013-04-22 00:05:00,
2013-04-22 02:10:00,51.0,46.3,29.90,SE,126,5.0,9.0,84,0.00,,,0.00,0.0,WeatherDisplay:10.37,2013-04-22 00:10:00,
2013-04-22 02:15:00,51.0,46.4,29.90,ESE,123,7.0,10.0,84,0.00,,,0.00,0.0,WeatherDisplay:10.37,2013-04-22 00:15:00,
2013-04-22 02:20:00,51.0,46.0,29.89,ESE,120,8.0,10.0,83,0.00,,,0.00,0.0,WeatherDisplay:10.37,2013-04-22 00:20:00,
2013-04-22 02:25:00,50.8,45.8,29.89,ESE,120,5.0,10.0,83,0.00,,,0.00,0.0,WeatherDisplay:10.37,2013-04-22 00:25:00,
2013-04-22 02:30:00,50.7,45.7,29.89,ESE,119,5.0,8.0,83,0.00,,,0.00,0.0,WeatherDisplay:10.37,2013-04-22 00:30:00,
2013-04-22 02:35:00,50.6,45.6,29.90,ESE,115,3.0,7.0,83,0.00,,,0.00,0.0,WeatherDisplay:10.37,2013-04-22 00:35:00,
2013-04-22 02:40:00,50.5,45.5,29.89,ESE,113,5.0,7.0,83,0.00,,,0.00,0.0,WeatherDisplay:10.37,2013-04-22 00:40:00,
2013-04-22 02:45:00,50.5,45.2,29.89,ESE,109,3.0,7.0,82,0.00,,,0.00,0.0,WeatherDisplay:10.37,2013-04-22 00:45:00,
2013-04-22 02:50:00,50.6,45.3,29.89,ESE,107,2.0,5.0,82,0.00,,,0.00,0.0,WeatherDisplay:10.37,2013-04-22 00:50:00,
2013-04-22 02:55:00,50.9,44.9,29.89,ESE,105,3.0,7.0,80,0.00,,,0.00,0.0,WeatherDisplay:10.37,2013-04-22 00:55:00,
2013-04-22 03:00:00,51.1,44.8,29.89,ESE,110,5.0,8.0,79,0.00,,,0.00,0.0,WeatherDisplay:10.37,2013-04-22 01:00:00,
2013-04-22 03:05:00,51.3,44.7,29.89,ESE,114,2.0,7.0,78,0.00,,,0.00,0.0,WeatherDisplay:10.37,2013-04-22 01:05:00,
2013-04-22 03:10:00,51.2,44.6,29.89,ESE,114,0.0,5.0,78,0.00,,,0.00,0.0,WeatherDisplay:10.37,2013-04-22 01:10:00,
2013-04-22 03:15:00,51.0,44.4,29.89,ESE,115,1.0,4.0,78,0.00,,,0.00,0.0,WeatherDisplay:10.37,2013-04-22 01:15:00,
2013-04-22 03:20:00,50.9,44.3,29.89,ESE,116,3.0,7.0,78,0.00,,,0.00,0.0,WeatherDisplay:10.37,2013-04-22 01:20:00,
2013-04-22 03:25:00,50.8,44.2,29.88,ESE,119,3.0,7.0,78,0.00,,,0.00,0.0,WeatherDisplay:10.37,2013-04-22 01:25:00,
2013-04-22 03:30:00,50.7,44.5,29.88,ESE,119,3.0,5.0,79,0.00,,,0.00,0.0,WeatherDisplay:10.37,2013-04-22 01:30:00,
2013-04-22 03:35:00,50.4,44.1,29.88,ESE,116,5.0,7.0,79,0.00,,,0.00,0.0,WeatherDisplay:10.37,2013-04-22 01:35:00,
2013-04-22 03:40:00,50.4,44.5,29.88,ESE,112,5.0,7.0,80,0.00,,,0.00,0.0,WeatherDisplay:10.37,2013-04-22 01:40:00,
2013-04-22 03:45:00,50.1,44.9,29.88,ESE,109,1.0,3.0,82,0.00,,,0.00,0.0,WeatherDisplay:10.37,2013-04-22 01:45:00,
2013-04-22 03:50:00,49.9,44.0,29.88,ESE,105,5.0,7.0,80,0.00,,,0.00,0.0,WeatherDisplay:10.37,2013-04-22 01:50:00,
2013-04-22 03:55:00,49.9,44.3,29.87,ESE,104,3.0,5.0,81,0.00,,,0.00,0.0,WeatherDisplay:10.37,2013-04-22 01:55:00,
2013-04-22 04:05:00,49.7,43.8,29.86,East,96,7.0,9.0,80,0.00,,,0.00,0.0,WeatherDisplay:10.37,2013-04-22 02:05:00,
2013-04-22 04:10:00,49.5,43.9,29.87,East,93,1.0,6.0,81,0.00,,,0.00,0.0,WeatherDisplay:10.37,2013-04-22 02:10:00,
2013-04-22 04:15:00,49.5,44.2,29.87,East,92,0.0,0.0,82,0.00,,,0.00,0.0,WeatherDisplay:10.37,2013-04-22 02:15:00,
2013-04-22 04:20:00,49.6,44.3,29.87,East,92,0.0,0.0,82,0.00,,,0.00,0.0,WeatherDisplay:10.37,2013-04-22 02:20:00,
2013-04-22 04:25:00,49.9,44.6,29.86,East,92,0.0,0.0,82,0.00,,,0.00,0.0,WeatherDisplay:10.37,2013-04-22 02:25:00,
2013-04-22 04:30:00,50.0,44.4,29.87,East,92,0.0,1.0,81,0.00,,,0.00,0.0,WeatherDisplay:10.37,2013-04-22 02:30:00,
2013-04-22 04:35:00,50.2,44.6,29.87,East,92,0.0,1.0,81,0.00,,,0.00,0.0,WeatherDisplay:10.37,2013-04-22 02:35:00,
2013-04-22 04:40:00,50.3,44.7,29.87,East,92,0.0,1.0,81,0.00,,,0.00,0.0,WeatherDisplay:10.37,2013-04-22 02:40:00,
2013-04-22 04:45:00,50.5,44.9,29.87,East,92,0.0,0.0,81,0.01,RA,,0.01,0.0,WeatherDisplay:10.37,2013-04-22 02:45:00,
2013-04-22 04:50:00,50.5,45.2,29.87,East,92,0.0,0.0,82,0.02,RA,,0.02,0.0,WeatherDisplay:10.37,2013-04-22 02:50:00,
2013-04-22 04:55:00,50.4,45.1,29.87,East,92,1.0,3.0,82,0.00,RA,,0.02,0.0,WeatherDisplay:10.37,2013-04-22 02:55:00,
2013-04-22 05:00:00,50.5,45.5,29.87,East,92,0.0,2.0,83,0.00,,,0.02,0.0,WeatherDisplay:10.37,2013-04-22 03:00:00,
2013-04-22 05:05:00,50.2,45.6,29.86,East,92,0.0,0.0,84,0.00,,,0.02,0.0,WeatherDisplay:10.37,2013-04-22 03:05:00,
2013-04-22 05:10:00,50.3,45.3,29.86,East,92,0.0,0.0,83,0.00,,,0.02,0.0,WeatherDisplay:10.37,2013-04-22 03:10:00,
2013-04-22 05:15:00,50.5,45.5,29.86,East,92,0.0,0.0,83,0.00,,,0.02,0.0,WeatherDisplay:10.37,2013-04-22 03:15:00,
2013-04-22 05:20:00,50.5,45.5,29.86,East,92,0.0,0.0,83,0.00,,,0.02,0.0,WeatherDisplay:10.37,2013-04-22 03:20:00,
2013-04-22 05:25:00,50.6,45.6,29.86,East,92,0.0,0.0,83,0.00,,,0.02,0.0,WeatherDisplay:10.37,2013-04-22 03:25:00,
2013-04-22 05:30:00,50.8,45.8,29.86,East,92,0.0,0.0,83,0.01,RA,,0.03,0.0,WeatherDisplay:10.37,2013-04-22 03:30:00,
2013-04-22 05:35:00,50.9,45.9,29.87,East,92,0.0,0.0,83,0.00,RA,,0.03,0.0,WeatherDisplay:10.37,2013-04-22 03:35:00,
2013-04-22 05:40:00,50.9,46.2,29.86,East,92,0.0,1.0,84,0.00,,,0.03,0.0,WeatherDisplay:10.37,2013-04-22 03:40:00,
2013-04-22 05:45:00,50.8,46.5,29.87,East,92,0.0,0.0,85,0.02,RA,,0.05,0.0,WeatherDisplay:10.37,2013-04-22 03:45:00,
2013-04-22 05:50:00,50.6,46.3,29.87,East,92,0.0,0.0,85,0.01,RA,,0.05,0.0,WeatherDisplay:10.37,2013-04-22 03:50:00,
2013-04-22 05:55:00,50.6,46.6,29.87,East,92,0.0,0.0,86,0.01,RA,,0.06,0.0,WeatherDisplay:10.37,2013-04-22 03:55:00,
2013-04-22 06:00:00,50.5,46.5,29.87,East,92,0.0,0.0,86,0.01,RA,,0.07,0.0,WeatherDisplay:10.37,2013-04-22 04:00:00,
2013-04-22 06:05:00,50.6,46.6,29.87,East,91,0.0,0.0,86,0.01,RA,,0.08,0.0,WeatherDisplay:10.37,2013-04-22 04:05:00,
2013-04-22 06:10:00,50.6,46.9,29.86,East,92,0.0,0.0,87,0.00,OVC,,0.09,0.0,WeatherDisplay:10.37,2013-04-22 04:10:00,
2013-04-22 06:20:00,50.5,47.1,29.86,East,92,0.0,0.0,88,0.00,OVC,,0.09,0.0,WeatherDisplay:10.37,2013-04-22 04:20:00,
2013-04-22 06:25:00,50.2,46.8,29.86,East,92,0.0,0.0,88,0.00,OVC,,0.09,0.0,WeatherDisplay:10.37,2013-04-22 04:25:00,
2013-04-22 06:30:00,50.3,46.9,29.87,East,92,0.0,0.0,88,0.00,OVC,,0.09,0.0,WeatherDisplay:10.37,2013-04-22 04:30:00,
2013-04-22 06:35:00,50.5,47.1,29.87,East,92,0.0,2.0,88,0.00,OVC,,0.09,5.0,WeatherDisplay:10.37,2013-04-22 04:35:00,
2013-04-22 06:40:00,50.0,46.9,29.87,East,91,2.0,5.0,89,0.00,OVC,,0.09,7.0,WeatherDisplay:10.37,2013-04-22 04:40:00,
2013-04-22 06:45:00,49.9,46.8,29.87,East,87,5.0,7.0,89,0.00,OVC,,0.09,9.0,WeatherDisplay:10.37,2013-04-22 04:45:00,
2013-04-22 06:50:00,49.8,47.0,29.87,East,86,5.0,7.0,90,0.00,OVC,,0.09,11.0,WeatherDisplay:10.37,2013-04-22 04:50:00,
2013-04-22 06:55:00,49.7,46.9,29.87,East,90,6.0,8.0,90,0.00,OVC,,0.09,12.0,WeatherDisplay:10.37,2013-04-22 04:55:00,
2013-04-22 07:00:00,49.6,47.1,29.88,East,96,7.0,9.0,91,0.00,BKN,,0.09,16.0,WeatherDisplay:10.37,2013-04-22 05:00:00,
2013-04-22 07:05:00,49.6,47.1,29.87,East,99,8.0,12.0,91,0.00,BKN,,0.09,18.0,WeatherDisplay:10.37,2013-04-22 05:05:00,
2013-04-22 07:10:00,49.5,46.7,29.87,East,101,7.0,10.0,90,0.00,BKN,,0.09,23.0,WeatherDisplay:10.37,2013-04-22 05:10:00,
2013-04-22 07:15:00,49.6,46.8,29.87,ESE,103,6.0,10.0,90,0.00,BKN,,0.09,19.0,WeatherDisplay:10.37,2013-04-22 05:15:00,
2013-04-22 07:20:00,49.7,46.9,29.87,ESE,107,7.0,10.0,90,0.00,BKN,,0.09,19.0,WeatherDisplay:10.37,2013-04-22 05:20:00,
2013-04-22 07:25:00,49.8,47.0,29.87,ESE,113,6.0,10.0,90,0.00,BKN,,0.09,21.0,WeatherDisplay:10.37,2013-04-22 05:25:00,
2013-04-22 07:30:00,49.8,47.0,29.87,ESE,122,6.0,10.0,90,0.00,BKN,,0.09,25.0,WeatherDisplay:10.37,2013-04-22 05:30:00,
2013-04-22 07:35:00,50.0,47.2,29.87,SE,128,7.0,12.0,90,0.00,BKN,,0.09,32.0,WeatherDisplay:10.37,2013-04-22 05:35:00,
2013-04-22 07:40:00,50.2,47.4,29.87,SE,130,5.0,12.0,90,0.00,BKN,,0.09,37.0,WeatherDisplay:10.37,2013-04-22 05:40:00,
2013-04-22 07:45:00,50.4,47.3,29.87,SE,131,6.0,12.0,89,0.00,BKN,,0.09,35.0,WeatherDisplay:10.37,2013-04-22 05:45:00,
2013-04-22 07:50:00,50.5,47.1,29.87,SE,130,6.0,12.0,88,0.00,BKN,,0.09,42.0,WeatherDisplay:10.37,2013-04-22 05:50:00,
2013-04-22 07:55:00,50.6,47.2,29.88,SE,129,7.0,12.0,88,0.00,BKN,,0.09,54.0,WeatherDisplay:10.37,2013-04-22 05:55:00,
2013-04-22 08:00:00,50.6,46.9,29.88,SE,127,3.0,12.0,87,0.00,BKN,,0.09,63.0,WeatherDisplay:10.37,2013-04-22 06:00:00,
2013-04-22 08:05:00,50.7,47.0,29.88,SE,125,8.0,12.0,87,0.00,BKN,,0.09,77.0,WeatherDisplay:10.37,2013-04-22 06:05:00,
2013-04-22 08:10:00,50.8,47.1,29.88,SE,126,6.0,12.0,87,0.00,BKN,,0.09,90.0,WeatherDisplay:10.37,2013-04-22 06:10:00,
2013-04-22 08:15:00,50.9,47.1,29.88,SE,124,5.0,12.0,87,0.00,BKN,,0.09,97.0,WeatherDisplay:10.37,2013-04-22 06:15:00,
2013-04-22 08:20:00,51.0,47.3,29.88,SE,130,3.0,7.0,87,0.00,BKN,,0.09,102.0,WeatherDisplay:10.37,2013-04-22 06:20:00,
2013-04-22 08:25:00,51.1,47.4,29.88,SE,134,2.0,7.0,87,0.00,BKN,,0.09,118.0,WeatherDisplay:10.37,2013-04-22 06:25:00,
2013-04-22 08:30:00,51.3,47.5,29.88,SE,131,6.0,12.0,87,0.00,BKN,,0.09,123.0,WeatherDisplay:10.37,2013-04-22 06:30:00,
2013-04-22 08:35:00,51.4,47.4,29.87,SE,135,6.0,13.0,86,0.00,BKN,,0.09,114.0,WeatherDisplay:10.37,2013-04-22 06:35:00,
2013-04-22 08:40:00,51.6,47.5,29.88,SE,132,6.0,13.0,86,0.00,BKN,,0.09,113.0,WeatherDisplay:10.37,2013-04-22 06:40:00,
2013-04-22 08:45:00,51.9,47.2,29.87,SE,130,7.0,12.0,84,0.00,BKN,,0.09,127.0,WeatherDisplay:10.37,2013-04-22 06:45:00,
2013-04-22 08:50:00,52.1,47.1,29.88,SE,129,6.0,12.0,83,0.00,BKN,,0.09,178.0,WeatherDisplay:10.37,2013-04-22 06:50:00,
2013-04-22 08:55:00,52.3,47.3,29.88,SE,128,3.0,7.0,83,0.00,BKN,,0.09,227.0,WeatherDisplay:10.37,2013-04-22 06:55:00,
2013-04-22 09:00:00,52.7,47.3,29.88,ESE,122,6.0,12.0,82,0.00,BKN,,0.09,380.0,WeatherDisplay:10.37,2013-04-22 07:00:00,
2013-04-22 09:05:00,53.4,47.4,29.88,SE,127,6.0,10.0,80,0.00,SCT,,0.09,592.0,WeatherDisplay:10.37,2013-04-22 07:05:00,
2013-04-22 09:10:00,54.3,47.9,29.88,SE,126,6.0,9.0,79,0.00,FEW,,0.09,578.0,WeatherDisplay:10.37,2013-04-22 07:10:00,
2013-04-22 09:15:00,55.6,48.9,29.88,SE,134,6.0,10.0,78,0.00,CLR,,0.09,613.0,WeatherDisplay:10.37,2013-04-22 07:15:00,
2013-04-22 09:20:00,55.1,47.7,29.88,SE,142,3.0,13.0,76,0.00,SCT,,0.09,163.0,WeatherDisplay:10.37,2013-04-22 07:20:00,
2013-04-22 09:30:00,54.5,47.1,29.88,SE,129,6.0,12.0,76,0.00,BKN,,0.09,142.0,WeatherDisplay:10.37,2013-04-22 07:30:00,
2013-04-22 09:35:00,54.6,47.2,29.88,SE,130,2.0,12.0,76,0.00,BKN,,0.09,162.0,WeatherDisplay:10.37,2013-04-22 07:35:00,
2013-04-22 09:40:00,54.6,47.2,29.88,SE,124,6.0,15.0,76,0.00,BKN,,0.09,278.0,WeatherDisplay:10.37,2013-04-22 07:40:00,
2013-04-22 09:45:00,55.4,47.2,29.88,ESE,122,9.0,15.0,74,0.00,BKN,,0.09,679.0,WeatherDisplay:10.37,2013-04-22 07:45:00,
2013-04-22 09:50:00,56.1,46.8,29.88,ESE,120,5.0,15.0,71,0.00,SCT,,0.09,322.0,WeatherDisplay:10.37,2013-04-22 07:50:00,
2013-04-22 09:55:00,56.3,47.0,29.88,SE,127,2.0,12.0,71,0.00,SCT,,0.09,220.0,WeatherDisplay:10.37,2013-04-22 07:55:00,
2013-04-22 10:00:00,55.9,45.8,29.88,SE,136,7.0,15.0,69,0.00,BKN,,0.09,237.0,WeatherDisplay:10.37,2013-04-22 08:00:00,
2013-04-22 10:05:00,55.7,46.0,29.89,SE,136,5.0,12.0,70,0.00,BKN,,0.09,292.0,WeatherDisplay:10.37,2013-04-22 08:05:00,
2013-04-22 10:10:00,55.6,47.4,29.89,SE,137,2.0,9.0,74,0.00,BKN,,0.09,355.0,WeatherDisplay:10.37,2013-04-22 08:10:00,
2013-04-22 10:15:00,55.3,47.2,29.88,SE,138,3.0,8.0,74,0.00,BKN,,0.09,387.0,WeatherDisplay:10.37,2013-04-22 08:15:00,
2013-04-22 10:20:00,55.7,47.2,29.89,SE,126,6.0,12.0,73,0.00,BKN,,0.09,374.0,WeatherDisplay:10.37,2013-04-22 08:20:00,
2013-04-22 10:25:00,56.3,47.0,29.89,SE,128,3.0,13.0,71,0.00,BKN,,0.09,399.0,WeatherDisplay:10.37,2013-04-22 08:25:00,
2013-04-22 10:35:00,55.2,46.4,29.89,SE,144,8.0,17.0,72,0.00,BKN,,0.09,88.0,WeatherDisplay:10.37,2013-04-22 08:35:00,
2013-04-22 10:40:00,54.7,46.5,29.89,SE,137,3.0,15.0,74,0.00,BKN,,0.09,116.0,WeatherDisplay:10.37,2013-04-22 08:40:00,
2013-04-22 10:45:00,54.3,46.9,29.89,SE,124,5.0,10.0,76,0.00,BKN,,0.09,97.0,WeatherDisplay:10.37,2013-04-22 08:45:00,
2013-04-22 10:50:00,54.1,47.4,29.89,SE,133,5.0,12.0,78,0.00,BKN,,0.09,69.0,WeatherDisplay:10.37,2013-04-22 08:50:00,
2013-04-22 10:55:00,53.2,47.2,29.90,SE,142,6.0,14.0,80,0.01,RA,,0.09,67.0,WeatherDisplay:10.37,2013-04-22 08:55:00,
2013-04-22 11:00:00,52.5,46.9,29.90,SE,141,5.0,14.0,81,0.00,RA,,0.09,98.0,WeatherDisplay:10.37,2013-04-22 09:00:00,
2013-04-22 11:05:00,52.2,47.2,29.90,SE,136,5.0,12.0,83,0.00,BKN,,0.09,93.0,WeatherDisplay:10.37,2013-04-22 09:05:00,
2013-04-22 11:10:00,51.8,47.5,29.91,SE,139,6.0,15.0,85,0.00,BKN,,0.09,102.0,WeatherDisplay:10.37,2013-04-22 09:10:00,
2013-04-22 11:15:00,51.1,47.1,29.90,SE,130,8.0,17.0,86,0.02,RA,,0.11,142.0,WeatherDisplay:10.37,2013-04-22 09:15:00,
2013-04-22 11:20:00,50.9,47.5,29.91,SE,127,8.0,15.0,88,0.00,RA,,0.11,221.0,WeatherDisplay:10.37,2013-04-22 09:20:00,
2013-04-22 11:25:00,51.0,47.6,29.91,SE,127,5.0,14.0,88,0.01,RA,,0.12,290.0,WeatherDisplay:10.37,2013-04-22 09:25:00,
2013-04-22 11:30:00,51.3,48.2,29.91,SE,142,2.0,8.0,89,0.00,RA,,0.12,396.0,WeatherDisplay:10.37,2013-04-22 09:30:00,
2013-04-22 11:35:00,51.7,48.9,29.91,SE,136,5.0,9.0,90,0.00,BKN,,0.12,487.0,WeatherDisplay:10.37,2013-04-22 09:35:00,
2013-04-22 11:40:00,52.4,49.6,29.91,SE,124,2.0,9.0,90,0.00,BKN,,0.12,406.0,WeatherDisplay:10.37,2013-04-22 09:40:00,
2013-04-22 11:45:00,52.7,49.6,29.91,SE,138,3.0,9.0,89,0.00,BKN,,0.12,257.0,WeatherDisplay:10.37,2013-04-22 09:45:00,
2013-04-22 11:50:00,52.8,49.0,29.91,SE,138,5.0,10.0,87,0.00,BKN,,0.12,144.0,WeatherDisplay:10.37,2013-04-22 09:50:00,
2013-04-22 11:55:00,52.8,49.0,29.91,SE,125,5.0,10.0,87,0.00,BKN,,0.12,139.0,WeatherDisplay:10.37,2013-04-22 09:55:00,
2013-04-22 12:00:00,52.5,48.4,29.91,ESE,120,5.0,12.0,86,0.00,BKN,,0.12,248.0,WeatherDisplay:10.37,2013-04-22 10:00:00,
2013-04-22 12:05:00,52.6,48.5,29.91,ESE,113,3.0,8.0,86,0.00,BKN,,0.12,322.0,WeatherDisplay:10.37,2013-04-22 10:05:00,
2013-04-22 12:10:00,52.7,48.9,29.91,ESE,104,5.0,8.0,87,0.00,BKN,,0.12,206.0,WeatherDisplay:10.37,2013-04-22 10:10:00,
2013-04-22 12:15:00,52.9,49.1,29.91,ESE,104,2.0,7.0,87,0.00,BKN,,0.12,172.0,WeatherDisplay:10.37,2013-04-22 10:15:00,
2013-04-22 12:20:00,53.1,49.3,29.90,ESE,108,0.0,5.0,87,0.00,BKN,,0.12,211.0,WeatherDisplay:10.37,2013-04-22 10:20:00,
2013-04-22 12:25:00,53.3,49.5,29.91,ESE,120,0.0,5.0,87,0.00,BKN,,0.12,216.0,WeatherDisplay:10.37,2013-04-22 10:25:00,
2013-04-22 12:30:00,53.5,49.4,29.91,ESE,120,2.0,7.0,86,0.00,BKN,,0.12,135.0,WeatherDisplay:10.37,2013-04-22 10:30:00,
2013-04-22 12:35:00,53.3,48.9,29.91,ESE,111,3.0,7.0,85,0.00,BKN,,0.12,162.0,WeatherDisplay:10.37,2013-04-22 10:35:00,
2013-04-22 12:40:00,53.4,48.7,29.90,ESE,110,5.0,9.0,84,0.01,RA,,0.13,199.0,WeatherDisplay:10.37,2013-04-22 10:40:00,
2013-04-22 12:45:00,53.4,49.0,29.90,ESE,122,1.0,9.0,85,0.00,RA,,0.13,153.0,WeatherDisplay:10.37,2013-04-22 10:45:00,
2013-04-22 12:50:00,53.1,48.4,29.90,SE,130,6.0,13.0,84,0.00,BKN,,0.13,121.0,WeatherDisplay:10.37,2013-04-22 10:50:00,
2013-04-22 12:55:00,52.6,48.2,29.90,SE,128,5.0,10.0,85,0.01,RA,,0.13,105.0,WeatherDisplay:10.37,2013-04-22 10:55:00,
2013-04-22 13:05:00,52.3,48.5,29.90,SE,129,2.0,8.0,87,0.01,RA,,0.14,46.0,WeatherDisplay:10.37,2013-04-22 11:05:00,
2013-04-22 13:10:00,52.0,48.3,29.91,SE,125,3.0,7.0,87,0.01,RA,,0.15,56.0,WeatherDisplay:10.37,2013-04-22 11:10:00,
2013-04-22 13:15:00,51.9,48.5,29.90,SE,124,2.0,5.0,88,0.00,RA,,0.15,111.0,WeatherDisplay:10.37,2013-04-22 11:15:00,
2013-04-22 13:20:00,51.9,48.5,29.90,ESE,123,0.0,3.0,88,0.01,RA,,0.16,279.0,WeatherDisplay:10.37,2013-04-22 11:20:00,
2013-04-22 13:25:00,52.6,49.4,29.90,ESE,123,2.0,5.0,89,0.01,RA,,0.17,392.0,WeatherDisplay:10.37,2013-04-22 11:25:00,
2013-04-22 13:30:00,53.1,50.0,29.90,ESE,114,8.0,12.0,89,0.00,RA,,0.17,1106.0,WeatherDisplay:10.37,2013-04-22 11:30:00,
2013-04-22 13:35:00,53.8,50.6,29.91,ESE,122,7.0,12.0,89,0.00,CLR,,0.17,891.0,WeatherDisplay:10.37,2013-04-22 11:35:00,
2013-04-22 13:40:00,54.1,50.7,29.91,SE,133,8.0,10.0,88,0.00,CLR,,0.17,617.0,WeatherDisplay:10.37,2013-04-22 11:40:00,
2013-04-22 13:50:00,53.8,49.7,29.91,SE,132,3.0,12.0,86,0.00,FEW,,0.17,315.0,WeatherDisplay:10.37,2013-04-22 11:50:00,
2013-04-22 13:55:00,53.5,49.8,29.91,SE,134,6.0,12.0,87,0.00,SCT,,0.17,399.0,WeatherDisplay:10.37,2013-04-22 11:55:00,
2013-04-22 14:00:00,53.4,49.9,29.91,ESE,122,6.0,10.0,88,0.00,BKN,,0.17,348.0,WeatherDisplay:10.37,2013-04-22 12:00:00,
2013-04-22 14:05:00,53.5,49.7,29.91,ESE,113,2.0,12.0,87,0.00,BKN,,0.17,438.0,WeatherDisplay:10.37,2013-04-22 12:05:00,
2013-04-22 14:10:00,54.7,50.9,29.90,ESE,110,7.0,13.0,87,0.00,SCT,,0.17,1049.0,WeatherDisplay:10.37,2013-04-22 12:10:00,
2013-04-22 14:15:00,54.6,50.2,29.91,ESE,116,5.0,12.0,85,0.00,FEW,,0.17,318.0,WeatherDisplay:10.37,2013-04-22 12:15:00,
2013-04-22 14:20:00,54.1,49.3,29.91,ESE,119,8.0,12.0,84,0.00,SCT,,0.17,188.0,WeatherDisplay:10.37,2013-04-22 12:20:00,
2013-04-22 14:25:00,53.4,48.6,29.91,ESE,120,7.0,9.0,84,0.00,BKN,,0.17,193.0,WeatherDisplay:10.37,2013-04-22 12:25:00,
2013-04-22 14:30:00,53.3,48.3,29.90,ESE,121,5.0,10.0,83,0.00,BKN,,0.17,142.0,WeatherDisplay:10.37,2013-04-22 12:30:00,
2013-04-22 14:35:00,53.5,48.7,29.90,SE,124,2.0,8.0,84,0.00,BKN,,0.17,104.0,WeatherDisplay:10.37,2013-04-22 12:35:00,
2013-04-22 14:40:00,53.1,48.7,29.90,ESE,123,1.0,7.0,85,0.01,RA,,0.17,97.0,WeatherDisplay:10.37,2013-04-22 12:40:00,
2013-04-22 14:45:00,52.9,48.8,29.90,ESE,114,1.0,7.0,86,0.00,RA,,0.17,90.0,WeatherDisplay:10.37,2013-04-22 12:45:00,
2013-04-22 14:50:00,52.8,48.8,29.90,ESE,112,3.0,7.0,86,0.00,BKN,,0.17,77.0,WeatherDisplay:10.37,2013-04-22 12:50:00,
2013-04-22 14:55:00,52.9,49.1,29.90,ESE,111,1.0,3.0,87,0.00,BKN,,0.17,105.0,WeatherDisplay:10.37,2013-04-22 12:55:00,
2013-04-22 15:00:00,52.8,49.0,29.90,ESE,110,0.0,4.0,87,0.00,BKN,,0.17,121.0,WeatherDisplay:10.37,2013-04-22 13:00:00,
2013-04-22 15:05:00,53.0,49.6,29.90,ESE,109,0.0,0.0,88,0.00,BKN,,0.17,116.0,WeatherDisplay:10.37,2013-04-22 13:05:00,
2013-04-22 15:10:00,53.1,49.7,29.90,ESE,109,1.0,3.0,88,0.00,BKN,,0.17,125.0,WeatherDisplay:10.37,2013-04-22 13:10:00,
2013-04-22 15:15:00,53.1,49.7,29.90,ESE,109,2.0,4.0,88,0.00,BKN,,0.17,176.0,WeatherDisplay:10.37,2013-04-22 13:15:00,
2013-04-22 15:20:00,53.3,49.8,29.89,ESE,109,2.0,4.0,88,0.00,BKN,,0.17,311.0,WeatherDisplay:10.37,2013-04-22 13:20:00,
2013-04-22 15:25:00,53.8,50.6,29.89,ESE,108,5.0,8.0,89,0.01,RA,,0.18,482.0,WeatherDisplay:10.37,2013-04-22 13:25:00,
2013-04-22 15:30:00,54.3,51.1,29.89,ESE,106,6.0,10.0,89,0.00,RA,,0.18,244.0,WeatherDisplay:10.37,2013-04-22 13:30:00,
2013-04-22 15:35:00,54.0,50.2,29.89,ESE,116,2.0,10.0,87,0.00,BKN,,0.18,142.0,WeatherDisplay:10.37,2013-04-22 13:35:00,
2013-04-22 15:40:00,54.2,50.4,29.89,SE,124,0.0,9.0,87,0.00,BKN,,0.18,111.0,WeatherDisplay:10.37,2013-04-22 13:40:00,
2013-04-22 15:45:00,54.0,50.2,29.89,SE,124,1.0,5.0,87,0.00,BKN,,0.18,91.0,WeatherDisplay:10.37,2013-04-22 13:45:00,
2013-04-22 15:50:00,53.9,50.5,29.89,SSE,158,2.0,8.0,88,0.01,RA,,0.19,118.0,WeatherDisplay:10.37,2013-04-22 13:50:00,
2013-04-22 15:55:00,53.4,49.9,29.89,South,175,6.0,9.0,88,0.00,RA,,0.19,183.0,WeatherDisplay:10.37,2013-04-22 13:55:00,
2013-04-22 16:00:00,53.1,49.6,29.90,South,171,5.0,8.0,88,0.01,RA,,0.20,248.0,WeatherDisplay:10.37,2013-04-22 14:00:00,
2013-04-22 16:05:00,53.1,50.0,29.90,SSE,164,5.0,9.0,89,0.00,RA,,0.20,330.0,WeatherDisplay:10.37,2013-04-22 14:05:00,
2013-04-22 16:10:00,53.3,50.5,29.90,SSE,147,5.0,10.0,90,0.00,SCT,,0.20,334.0,WeatherDisplay:10.37,2013-04-22 14:10:00,
2013-04-22 16:15:00,53.0,50.2,29.90,SE,136,9.0,13.0,90,0.00,FEW,,0.20,387.0,WeatherDisplay:10.37,2013-04-22 14:15:00,
2013-04-22 16:20:00,52.7,49.0,29.89,ESE,116,3.0,12.0,87,0.00,FEW,,0.20,434.0,WeatherDisplay:10.37,2013-04-22 14:20:00,
2013-04-22 16:25:00,53.4,49.3,29.89,ESE,113,6.0,10.0,86,0.00,CLR,,0.20,872.0,WeatherDisplay:10.37,2013-04-22 14:25:00,
2013-04-22 16:30:00,54.5,50.7,29.89,ESE,117,6.0,9.0,87,0.00,CLR,,0.20,854.0,WeatherDisplay:10.37,2013-04-22 14:30:00,
2013-04-22 16:35:00,54.8,51.0,29.89,ESE,118,6.0,9.0,87,0.00,CLR,,0.20,831.0,WeatherDisplay:10.37,2013-04-22 14:35:00,
2013-04-22 16:40:00,55.3,51.5,29.89,ESE,117,3.0,10.0,87,0.00,CLR,,0.20,701.0,WeatherDisplay:10.37,2013-04-22 14:40:00,
2013-04-22 16:45:00,55.3,51.1,29.89,ESE,123,6.0,9.0,86,0.00,CLR,,0.20,577.0,WeatherDisplay:10.37,2013-04-22 14:45:00,
2013-04-22 16:50:00,55.5,51.4,29.89,ESE,117,2.0,9.0,86,0.00,CLR,,0.20,694.0,WeatherDisplay:10.37,2013-04-22 14:50:00,
2013-04-22 16:55:00,55.3,50.9,29.89,ESE,121,6.0,10.0,85,0.00,CLR,,0.20,329.0,WeatherDisplay:10.37,2013-04-22 14:55:00,
2013-04-22 17:00:00,55.1,50.7,29.89,ESE,122,3.0,9.0,85,0.00,CLR,,0.20,253.0,WeatherDisplay:10.37,2013-04-22 15:00:00,
2013-04-22 17:05:00,55.3,50.9,29.89,SE,126,2.0,12.0,85,0.00,FEW,,0.20,137.0,WeatherDisplay:10.37,2013-04-22 15:05:00,
2013-04-22 17:10:00,55.6,51.5,29.90,SE,129,0.0,3.0,86,0.01,RA,,0.20,188.0,WeatherDisplay:10.37,2013-04-22 15:10:00,
2013-04-22 17:15:00,55.4,51.3,29.89,SE,129,1.0,7.0,86,0.00,RA,,0.20,265.0,WeatherDisplay:10.37,2013-04-22 15:15:00,
2013-04-22 17:20:00,55.3,51.2,29.89,ESE,123,0.0,7.0,86,0.00,CLR,,0.20,243.0,WeatherDisplay:10.37,2013-04-22 15:20:00,
2013-04-22 17:25:00,55.3,51.4,29.90,ESE,114,0.0,5.0,87,0.00,CLR,,0.20,306.0,WeatherDisplay:10.37,2013-04-22 15:25:00,
2013-04-22 17:30:00,55.5,51.7,29.89,ESE,111,0.0,5.0,87,0.00,CLR,,0.20,267.0,WeatherDisplay:10.37,2013-04-22 15:30:00,
2013-04-22 17:35:00,55.7,51.9,29.90,ESE,108,5.0,7.0,87,0.00,CLR,,0.20,262.0,WeatherDisplay:10.37,2013-04-22 15:35:00,
2013-04-22 17:40:00,55.5,51.4,29.89,ESE,115,2.0,9.0,86,0.00,CLR,,0.20,163.0,WeatherDisplay:10.37,2013-04-22 15:40:00,
2013-04-22 17:45:00,55.4,51.3,29.89,ESE,117,0.0,7.0,86,0.00,CLR,,0.20,155.0,WeatherDisplay:10.37,2013-04-22 15:45:00,
2013-04-22 17:50:00,55.4,51.0,29.90,ESE,119,1.0,4.0,85,0.00,CLR,,0.20,262.0,WeatherDisplay:10.37,2013-04-22 15:50:00,
2013-04-22 17:55:00,55.8,51.3,29.90,ESE,117,0.0,4.0,85,0.00,CLR,,0.20,262.0,WeatherDisplay:10.37,2013-04-22 15:55:00,
2013-04-22 18:00:00,56.1,51.7,29.90,SE,129,3.0,9.0,85,0.00,CLR,,0.20,125.0,WeatherDisplay:10.37,2013-04-22 16:00:00,
2013-04-22 18:05:00,56.2,51.4,29.90,SE,137,1.0,7.0,84,0.00,CLR,,0.20,65.0,WeatherDisplay:10.37,2013-04-22 16:05:00,
2013-04-22 18:10:00,56.1,51.0,29.90,SE,138,1.0,7.0,83,0.00,SCT,,0.20,63.0,WeatherDisplay:10.37,2013-04-22 16:10:00,
2013-04-22 18:15:00,55.7,50.6,29.90,SSE,153,3.0,8.0,83,0.00,SCT,,0.20,86.0,WeatherDisplay:10.37,2013-04-22 16:15:00,
2013-04-22 18:20:00,55.7,50.9,29.90,SSE,160,1.0,7.0,84,0.00,CLR,,0.20,121.0,WeatherDisplay:10.37,2013-04-22 16:20:00,
2013-04-22 18:25:00,55.7,50.9,29.90,SSE,168,3.0,7.0,84,0.00,CLR,,0.20,116.0,WeatherDisplay:10.37,2013-04-22 16:25:00,
2013-04-22 18:30:00,55.9,50.8,29.90,South,172,3.0,8.0,83,0.00,CLR,,0.20,127.0,WeatherDisplay:10.37,2013-04-22 16:30:00,
2013-04-22 18:35:00,56.0,50.9,29.90,SSE,163,1.0,7.0,83,0.00,CLR,,0.20,134.0,WeatherDisplay:10.37,2013-04-22 16:35:00,
2013-04-22 18:40:00,56.2,50.8,29.90,SSE,160,3.0,7.0,82,0.00,CLR,,0.20,83.0,WeatherDisplay:10.37,2013-04-22 16:40:00,
2013-04-22 18:45:00,56.2,49.5,29.90,South,179,6.0,12.0,78,0.00,CLR,,0.20,70.0,WeatherDisplay:10.37,2013-04-22 16:45:00,
2013-04-22 18:50:00,56.3,49.5,29.90,South,179,6.0,9.0,78,0.00,CLR,,0.20,65.0,WeatherDisplay:10.37,2013-04-22 16:50:00,
2013-04-22 18:55:00,56.2,49.4,29.91,South,181,2.0,8.0,78,0.00,CLR,,0.20,65.0,WeatherDisplay:10.37,2013-04-22 16:55:00,
2013-04-22 19:00:00,56.1,49.3,29.91,South,174,6.0,8.0,78,0.00,OVC,,0.20,47.0,WeatherDisplay:10.37,2013-04-22 17:00:00,
2013-04-22 19:05:00,56.0,49.6,29.91,South,173,3.0,6.0,79,0.00,OVC,,0.20,40.0,WeatherDisplay:10.37,2013-04-22 17:05:00,
2013-04-22 19:10:00,55.8,49.4,29.91,South,175,6.0,8.0,79,0.00,OVC,,0.20,28.0,WeatherDisplay:10.37,2013-04-22 17:10:00,
2013-04-22 19:20:00,55.5,49.1,29.91,South,177,2.0,7.0,79,0.00,OVC,,0.20,14.0,WeatherDisplay:10.37,2013-04-22 17:20:00,
2013-04-22 19:25:00,55.3,49.2,29.92,SSE,168,1.0,5.0,80,0.00,OVC,,0.20,12.0,WeatherDisplay:10.37,2013-04-22 17:25:00,
2013-04-22 19:30:00,55.1,49.4,29.92,SSE,150,1.0,6.0,81,0.00,OVC,,0.20,12.0,WeatherDisplay:10.37,2013-04-22 17:30:00,
2013-04-22 19:35:00,54.7,49.3,29.92,SE,136,6.0,12.0,82,0.00,OVC,,0.20,11.0,WeatherDisplay:10.37,2013-04-22 17:35:00,
2013-04-22 19:40:00,54.4,49.3,29.92,SE,135,2.0,8.0,83,0.00,OVC,,0.20,9.0,WeatherDisplay:10.37,2013-04-22 17:40:00,
2013-04-22 19:45:00,54.1,49.1,29.93,SE,136,1.0,7.0,83,0.00,OVC,,0.20,7.0,WeatherDisplay:10.37,2013-04-22 17:45:00,
2013-04-22 19:50:00,53.8,49.1,29.93,SE,131,2.0,7.0,84,0.00,OVC,,0.20,5.0,WeatherDisplay:10.37,2013-04-22 17:50:00,
2013-04-22 19:55:00,53.4,48.7,29.93,SE,128,3.0,6.0,84,0.00,OVC,,0.20,0.0,WeatherDisplay:10.37,2013-04-22 17:55:00,
2013-04-22 20:00:00,53.1,48.4,29.93,SE,128,2.0,8.0,84,0.00,,,0.20,0.0,WeatherDisplay:10.37,2013-04-22 18:00:00,
2013-04-22 20:05:00,52.8,48.1,29.93,SE,131,1.0,8.0,84,0.00,,,0.20,0.0,WeatherDisplay:10.37,2013-04-22 18:05:00,
2013-04-22 20:10:00,52.7,48.3,29.93,SE,132,5.0,8.0,85,0.00,,,0.20,0.0,WeatherDisplay:10.37,2013-04-22 18:10:00,
2013-04-22 20:15:00,52.7,48.6,29.93,SE,130,2.0,10.0,86,0.00,,,0.20,0.0,WeatherDisplay:10.37,2013-04-22 18:15:00,
2013-04-22 20:20:00,52.8,48.7,29.93,SE,127,5.0,10.0,86,0.00,,,0.20,0.0,WeatherDisplay:10.37,2013-04-22 18:20:00,
2013-04-22 20:25:00,52.9,48.9,29.93,SE,125,1.0,9.0,86,0.00,,,0.20,0.0,WeatherDisplay:10.37,2013-04-22 18:25:00,
2013-04-22 20:30:00,53.1,49.3,29.94,SE,128,3.0,9.0,87,0.00,,,0.20,0.0,WeatherDisplay:10.37,2013-04-22 18:30:00,
2013-04-22 20:35:00,53.1,49.3,29.94,SE,135,2.0,7.0,87,0.01,RA,,0.21,0.0,WeatherDisplay:10.37,2013-04-22 18:35:00,
2013-04-22 20:40:00,52.9,49.4,29.95,SSE,156,3.0,6.0,88,0.00,RA,,0.21,0.0,WeatherDisplay:10.37,2013-04-22 18:40:00,
2013-04-22 20:45:00,52.6,49.4,29.95,South,170,6.0,9.0,89,0.01,RA,,0.22,0.0,WeatherDisplay:10.37,2013-04-22 18:45:00,
2013-04-22 20:50:00,52.6,49.7,29.95,SSE,163,3.0,8.0,90,0.02,RA,,0.24,0.0,WeatherDisplay:10.37,2013-04-22 18:50:00,
2013-04-22 20:55:00,52.5,49.7,29.95,SSE,151,3.0,9.0,90,0.00,RA,,0.24,0.0,WeatherDisplay:10.37,2013-04-22 18:55:00,
2013-04-22 21:00:00,52.5,49.7,29.96,SE,143,5.0,9.0,90,0.00,,,0.24,0.0,WeatherDisplay:10.37,2013-04-22 19:00:00,
2013-04-22 21:05:00,52.7,49.8,29.96,SE,140,3.0,9.0,90,0.00,,,0.24,0.0,WeatherDisplay:10.37,2013-04-22 19:05:00,
2013-04-22 21:10:00,52.7,49.5,29.96,SE,136,5.0,9.0,89,0.00,,,0.24,0.0,WeatherDisplay:10.37,2013-04-22 19:10:00,
2013-04-22 21:15:00,52.7,49.5,29.96,SE,129,3.0,9.0,89,0.00,,,0.24,0.0,WeatherDisplay:10.37,2013-04-22 19:15:00,
2013-04-22 21:20:00,52.6,49.4,29.97,SE,137,3.0,8.0,89,0.02,RA,,0.25,0.0,WeatherDisplay:10.37,2013-04-22 19:20:00,
2013-04-22 21:25:00,52.4,49.6,29.97,SSE,150,0.0,6.0,90,0.01,RA,,0.26,0.0,WeatherDisplay:10.37,2013-04-22 19:25:00,
2013-04-22 21:30:00,52.3,49.5,29.97,SSE,150,0.0,1.0,90,0.02,RA,,0.28,0.0,WeatherDisplay:10.37,2013-04-22 19:30:00,
2013-04-22 21:35:00,52.2,49.4,29.97,SE,144,0.0,3.0,90,0.03,RA,,0.31,0.0,WeatherDisplay:10.37,2013-04-22 19:35:00,
2013-04-22 21:40:00,52.0,49.5,29.98,SE,142,0.0,0.0,91,0.01,RA,,0.32,0.0,WeatherDisplay:10.37,2013-04-22 19:40:00,
2013-04-22 21:45:00,52.0,49.5,29.98,SE,142,0.0,3.0,91,0.01,RA,,0.33,0.0,WeatherDisplay:10.37,2013-04-22 19:45:00,
2013-04-22 21:50:00,52.1,49.6,29.98,SE,143,0.0,4.0,91,0.00,RA,,0.33,0.0,WeatherDisplay:10.37,2013-04-22 19:50:00,
2013-04-22 21:55:00,52.2,49.3,29.98,SE,143,0.0,5.0,90,0.00,,,0.33,0.0,WeatherDisplay:10.37,2013-04-22 19:55:00,
2013-04-22 22:00:00,52.3,49.5,29.98,SE,142,0.0,2.0,90,0.00,,,0.33,0.0,WeatherDisplay:10.37,2013-04-22 20:00:00,
2013-04-22 22:05:00,52.2,49.4,29.98,SE,126,5.0,9.0,90,0.00,,,0.33,0.0,WeatherDisplay:10.37,2013-04-22 20:05:00,
2013-04-22 22:10:00,52.2,49.4,29.98,SE,127,1.0,8.0,90,0.00,,,0.33,0.0,WeatherDisplay:10.37,2013-04-22 20:10:00,
2013-04-22 22:15:00,52.2,49.3,29.99,SE,130,7.0,13.0,90,0.00,,,0.33,0.0,WeatherDisplay:10.37,2013-04-22 20:15:00,
2013-04-22 22:20:00,52.2,49.4,29.99,SE,129,3.0,9.0,90,0.00,,,0.33,0.0,WeatherDisplay:10.37,2013-04-22 20:20:00,
2013-04-22 22:25:00,52.1,49.3,29.99,SE,136,3.0,10.0,90,0.00,,,0.33,0.0,WeatherDisplay:10.37,2013-04-22 20:25:00,
2013-04-22 22:30:00,51.9,49.1,29.99,SE,138,5.0,10.0,90,0.00,,,0.33,0.0,WeatherDisplay:10.37,2013-04-22 20:30:00,
2013-04-22 22:35:00,51.9,49.1,29.99,SE,137,3.0,7.0,90,0.00,,,0.33,0.0,WeatherDisplay:10.37,2013-04-22 20:35:00,
2013-04-22 22:40:00,51.8,49.0,29.99,SE,137,6.0,12.0,90,0.00,,,0.33,0.0,WeatherDisplay:10.37,2013-04-22 20:40:00,
2013-04-22 22:45:00,51.8,49.3,29.99,SE,137,5.0,9.0,91,0.00,,,0.33,0.0,WeatherDisplay:10.37,2013-04-22 20:45:00,
2013-04-22 22:50:00,51.8,49.3,29.99,SE,125,5.0,10.0,91,0.00,,,0.33,0.0,WeatherDisplay:10.37,2013-04-22 20:50:00,
2013-04-22 22:55:00,51.8,49.3,29.99,SE,131,5.0,9.0,91,0.00,,,0.33,0.0,WeatherDisplay:10.37,2013-04-22 20:55:00,
2013-04-22 23:00:00,51.8,48.9,29.99,SE,137,3.0,8.0,90,0.00,,,0.33,0.0,WeatherDisplay:10.37,2013-04-22 21:00:00,
2013-04-22 23:05:00,51.7,48.9,30.00,SE,130,2.0,8.0,90,0.00,,,0.33,0.0,WeatherDisplay:10.37,2013-04-22 21:05:00,
2013-04-22 23:10:00,51.7,48.9,30.00,SE,133,5.0,8.0,90,0.00,,,0.33,0.0,WeatherDisplay:10.37,2013-04-22 21:10:00,
2013-04-22 23:15:00,51.7,48.9,30.00,SE,140,1.0,6.0,90,0.00,,,0.33,0.0,WeatherDisplay:10.37,2013-04-22 21:15:00,
2013-04-22 23:20:00,51.7,48.6,30.00,SE,137,3.0,8.0,89,0.00,,,0.33,0.0,WeatherDisplay:10.37,2013-04-22 21:20:00,
2013-04-22 23:25:00,51.7,48.3,30.00,SE,134,5.0,7.0,88,0.00,,,0.33,0.0,WeatherDisplay:10.37,2013-04-22 21:25:00,
2013-04-22 23:30:00,51.7,48.3,30.00,SE,130,3.0,8.0,88,0.00,,,0.33,0.0,WeatherDisplay:10.37,2013-04-22 21:30:00,
2013-04-22 23:35:00,51.6,47.9,30.00,SE,126,3.0,7.0,87,0.00,,,0.33,0.0,WeatherDisplay:10.37,2013-04-22 21:35:00,
2013-04-22 23:40:00,51.5,47.8,30.01,SE,126,2.0,7.0,87,0.00,,,0.33,0.0,WeatherDisplay:10.37,2013-04-22 21:40:00,
2013-04-22 23:45:00,51.4,47.7,30.01,SE,127,3.0,7.0,87,0.00,,,0.33,0.0,WeatherDisplay:10.37,2013-04-22 21:45:00,
2013-04-22 23:50:00,51.2,47.5,30.01,SE,127,3.0,5.0,87,0.00,,,0.33,0.0,WeatherDisplay:10.37,2013-04-22 21:50:00,
2013-04-22 23:55:00,51.1,47.4,30.01,SE,127,2.0,5.0,87,0.00,,,0.33,0.0,WeatherDisplay:10.37,2013-04-22 21:55:00,